sat.trackr.live / text

‹ back to catalog

STARLINK-4661

NORAD 53732 · 2022-107AJ

PAYLOAD ACTIVE UNKNOWN

§ Identity

Operator
Country
US
Launch date
2022-09-05
Launch site
AFETR
Launch vehicle
Mass (kg)
RCS (m²)

Purposes: comms

External: N2YO · Heavens-Above · Gunter

§ Orbital elements

Epoch: 2026-09-20T22:08:05.273664Z

Period
93.85 min
Inclination
53.1606°
Eccentricity
0.0001164
Mean motion
15.34391053 rev/d
Perigee alt
461.9 km
Apogee alt
463.5 km
Semi-major
6,840.9 km
B*
2.1034e-5
RAAN
81.8369°
Arg perigee
90.2515°
Mean anomaly
269.8621°
Rev number
22,424

§ Raw data

STARLINK-46611 53732U 22107AJ  26263.92228326  .00000334  00000+0  21034-4 0  99982 53732  53.1606  81.8369 0001164  90.2515 269.8621 15.34391053224244

JSON: /api/v1/satellites/53732 · /tle

For live sub-satellite position, see the globe view (requires WebGL).

§ Visibility from observer

Set your observer location to see the next 7 days of passes ≥ 10°. The values pass through the URL so the page stays shareable.

No JS? Fill the form by hand. The geolocation button needs JavaScript.